Check out our new BloomSky Weather System.

Active alerts

Houston, TX
  Details for Houston, TX Dense Fog Advisory


Thunder radar  blitzortung!


Rain radar more information rain snow radar


Visit our other weather sites:

Template documentation
and downloads

And another site



Weather Underground History page Text

Daily Summary for September 11, 2017 Units:  English    Metric   Both
« Previous Day
Next Day »
Daily Weekly Monthly Yearly Custom
  High: Low: Average:
Temperature: 83.1 °F 64.8 °F 73.8 °F
Dew Point: 64.6 °F 57.4 °F 61.5 °F
Humidity: 88 % 42 % 67 %
Wind Speed: 10.0 mph 0.0 mph 2 mph
Wind Gust: 13.0 mph - -
Wind:- - WNW
Pressure: 30.05 in 29.91 in -
Precipitation: 0.00 in    
Historical Graphs
 
 
Tabular Data for September 11, 2017
Time Temperature Dew Point Pressure Wind Wind Speed Wind Gust Humidity Rainfall Rate (Hourly)
00:00 71.2 °F 62.6 °F 30.04 in NNW 1.0 mph 2.0 mph 74 % 0.00 in
00:05 71.2 °F 63.0 °F 30.04 in North 1.0 mph 2.0 mph 75 % 0.00 in
00:10 71.2 °F 63.0 °F 30.04 in SSW 1.0 mph 3.0 mph 75 % 0.00 in
00:15 71.4 °F 63.1 °F 30.04 in NNW 1.0 mph 3.0 mph 75 % 0.00 in
00:20 71.4 °F 63.1 °F 30.04 in NNW 2.0 mph 3.0 mph 75 % 0.00 in
00:25 71.4 °F 63.1 °F 30.04 in Calm   3.0 mph 75 % 0.00 in
00:30 71.2 °F 63.0 °F 30.04 in North 1.0 mph 3.0 mph 75 % 0.00 in
00:31 71.2 °F 63.0 °F 30.04 in NNW 2.0 mph 3.0 mph 75 % 0.00 in
00:36 71.2 °F 63.0 °F 30.04 in NNW 1.0 mph 4.0 mph 75 % 0.00 in
00:41 71.1 °F 63.1 °F 30.04 in NNE 1.0 mph 4.0 mph 76 % 0.00 in
00:43 71.1 °F 63.1 °F 30.04 in Calm   4.0 mph 76 % 0.00 in
00:48 71.1 °F 63.1 °F 30.04 in North 3.0 mph 4.0 mph 76 % 0.00 in
00:53 70.9 °F 63.0 °F 30.04 in NNE 2.0 mph 3.0 mph 76 % 0.00 in
00:58 70.9 °F 63.0 °F 30.04 in North 1.0 mph 3.0 mph 76 % 0.00 in
01:03 71.1 °F 63.1 °F 30.04 in NW 2.0 mph 7.0 mph 76 % 0.00 in
01:08 71.1 °F 63.1 °F 30.03 in WNW 2.0 mph 7.0 mph 76 % 0.00 in
01:13 71.1 °F 63.1 °F 30.03 in NNW 2.0 mph 7.0 mph 76 % 0.00 in
01:18 71.1 °F 63.1 °F 30.03 in WNW 2.0 mph 6.0 mph 76 % 0.00 in
01:23 71.1 °F 63.1 °F 30.03 in North 3.0 mph 6.0 mph 76 % 0.00 in
01:28 71.1 °F 63.1 °F 30.03 in NNW 2.0 mph 7.0 mph 76 % 0.00 in
01:33 71.1 °F 63.1 °F 30.03 in NNW 1.0 mph 7.0 mph 76 % 0.00 in
01:38 70.9 °F 63.0 °F 30.03 in NNW 3.0 mph 7.0 mph 76 % 0.00 in
01:43 70.9 °F 63.0 °F 30.03 in WNW 1.0 mph 6.0 mph 76 % 0.00 in
01:48 70.9 °F 63.0 °F 30.03 in Calm   6.0 mph 76 % 0.00 in
01:53 70.7 °F 62.8 °F 30.02 in Calm   6.0 mph 76 % 0.00 in
01:58 70.5 °F 62.6 °F 30.02 in Calm   6.0 mph 76 % 0.00 in
02:03 70.5 °F 62.6 °F 30.02 in NW 1.0 mph 6.0 mph 76 % 0.00 in
02:08 70.3 °F 62.8 °F 30.02 in ENE 3.0 mph 6.0 mph 77 % 0.00 in
02:13 70.3 °F 62.8 °F 30.02 in NNW 3.0 mph 6.0 mph 77 % 0.00 in
02:18 70.3 °F 62.8 °F 30.01 in WSW 1.0 mph 4.0 mph 77 % 0.00 in
02:23 70.2 °F 62.6 °F 30.01 in North 4.0 mph 4.0 mph 77 % 0.00 in
02:29 70.2 °F 62.6 °F 30.01 in NNW 2.0 mph 5.0 mph 77 % 0.00 in
02:34 70.0 °F 62.4 °F 30.01 in NW 2.0 mph 5.0 mph 77 % 0.00 in
02:38 70.0 °F 62.4 °F 30.01 in NW 2.0 mph 5.0 mph 77 % 0.00 in
02:43 70.0 °F 62.4 °F 30.01 in NNW 2.0 mph 5.0 mph 77 % 0.00 in
02:48 70.0 °F 62.4 °F 30.01 in Calm   5.0 mph 77 % 0.00 in
02:53 69.6 °F 62.4 °F 30.01 in NNW 3.0 mph 5.0 mph 78 % 0.00 in
02:58 69.6 °F 62.4 °F 30.01 in WNW 2.0 mph 4.0 mph 78 % 0.00 in
03:03 69.4 °F 62.2 °F 30.01 in Calm   4.0 mph 78 % 0.00 in
03:08 69.3 °F 62.4 °F 30.01 in NW 2.0 mph 4.0 mph 79 % 0.00 in
03:13 69.3 °F 62.4 °F 30.01 in Calm   4.0 mph 79 % 0.00 in
03:18 69.3 °F 62.4 °F 30.01 in NW 2.0 mph 4.0 mph 79 % 0.00 in
03:20 69.3 °F 62.4 °F 30.01 in NNW 1.0 mph 4.0 mph 79 % 0.00 in
03:25 69.3 °F 62.4 °F 30.01 in Calm   4.0 mph 79 % 0.00 in
03:30 69.1 °F 62.2 °F 30.01 in Calm   4.0 mph 79 % 0.00 in
03:35 68.9 °F 62.1 °F 30.01 in NNW 1.0 mph 4.0 mph 79 % 0.00 in
03:40 68.9 °F 62.1 °F 30.01 in NNW 1.0 mph 4.0 mph 79 % 0.00 in
03:45 68.7 °F 61.9 °F 30.01 in North 5.0 mph 5.0 mph 79 % 0.00 in
03:50 68.7 °F 61.9 °F 30.01 in North 3.0 mph 5.0 mph 79 % 0.00 in
03:55 68.7 °F 61.9 °F 30.01 in Calm   5.0 mph 79 % 0.00 in
04:00 68.5 °F 62.1 °F 30.01 in North 2.0 mph 5.0 mph 80 % 0.00 in
04:05 68.5 °F 62.1 °F 30.01 in Calm   3.0 mph 80 % 0.00 in
04:10 68.5 °F 62.1 °F 30.01 in NW 4.0 mph 4.0 mph 80 % 0.00 in
04:15 68.5 °F 62.1 °F 30.01 in Calm   4.0 mph 80 % 0.00 in
04:20 68.4 °F 61.9 °F 30.01 in Calm   4.0 mph 80 % 0.00 in
04:25 68.4 °F 61.9 °F 30.01 in Calm   4.0 mph 80 % 0.00 in
04:30 68.4 °F 61.9 °F 30.01 in NW 2.0 mph 4.0 mph 80 % 0.00 in
04:35 68.2 °F 62.1 °F 30.01 in Calm   4.0 mph 81 % 0.00 in
04:40 67.8 °F 61.7 °F 30.01 in Calm   4.0 mph 81 % 0.00 in
04:45 67.8 °F 62.1 °F 30.01 in Calm   3.0 mph 82 % 0.00 in
04:50 67.6 °F 61.9 °F 30.01 in NW 1.0 mph 3.0 mph 82 % 0.00 in
04:55 67.6 °F 62.2 °F 30.01 in NNW 1.0 mph 3.0 mph 83 % 0.00 in
05:00 67.5 °F 62.1 °F 30.01 in Calm   3.0 mph 83 % 0.00 in
05:05 67.3 °F 61.9 °F 30.01 in Calm   3.0 mph 83 % 0.00 in
05:10 66.9 °F 61.9 °F 30.01 in Calm   2.0 mph 84 % 0.00 in
05:15 66.7 °F 62.1 °F 30.01 in Calm   2.0 mph 85 % 0.00 in
05:20 66.7 °F 62.1 °F 30.01 in Calm   2.0 mph 85 % 0.00 in
05:21 66.6 °F 61.9 °F 30.01 in NW 1.0 mph 2.0 mph 85 % 0.00 in
05:26 66.6 °F 61.9 °F 30.01 in Calm   2.0 mph 85 % 0.00 in
05:31 66.4 °F 62.1 °F 30.01 in Calm   2.0 mph 86 % 0.00 in
05:36 66.4 °F 62.1 °F 30.01 in Calm   1.0 mph 86 % 0.00 in
05:41 66.4 °F 62.1 °F 30.01 in NNW 2.0 mph 3.0 mph 86 % 0.00 in
05:46 66.4 °F 62.1 °F 30.01 in Calm   3.0 mph 86 % 0.00 in
05:51 66.4 °F 62.1 °F 30.02 in Calm   3.0 mph 86 % 0.00 in
05:56 66.2 °F 61.9 °F 30.02 in NW 1.0 mph 2.0 mph 86 % 0.00 in
06:01 66.2 °F 61.9 °F 30.02 in Calm   2.0 mph 86 % 0.00 in
06:06 66.0 °F 61.7 °F 30.02 in NNW 1.0 mph 2.0 mph 86 % 0.00 in
06:11 66.0 °F 61.7 °F 30.02 in NNW 1.0 mph 2.0 mph 86 % 0.00 in
06:16 66.0 °F 61.7 °F 30.02 in Calm   2.0 mph 86 % 0.00 in
06:21 66.0 °F 61.7 °F 30.02 in NW 1.0 mph 2.0 mph 86 % 0.00 in
06:26 66.0 °F 61.7 °F 30.02 in Calm   2.0 mph 86 % 0.00 in
06:31 65.8 °F 61.5 °F 30.03 in Calm   2.0 mph 86 % 0.00 in
06:36 65.8 °F 61.9 °F 30.03 in Calm   3.0 mph 87 % 0.00 in
06:41 65.8 °F 61.9 °F 30.03 in NNW 1.0 mph 3.0 mph 87 % 0.00 in
06:46 65.7 °F 61.7 °F 30.03 in Calm   3.0 mph 87 % 0.00 in
06:51 65.7 °F 61.7 °F 30.03 in NW 1.0 mph 2.0 mph 87 % 0.00 in
06:56 65.7 °F 61.7 °F 30.03 in Calm   2.0 mph 87 % 0.00 in
06:58 65.7 °F 61.7 °F 30.03 in NNW 1.0 mph 2.0 mph 87 % 0.00 in
07:03 65.7 °F 61.7 °F 30.03 in Calm   2.0 mph 87 % 0.00 in
07:08 65.7 °F 61.7 °F 30.03 in Calm   2.0 mph 87 % 0.00 in
07:09 65.7 °F 61.7 °F 30.03 in Calm   2.0 mph 87 % 0.00 in
07:14 65.7 °F 61.7 °F 30.03 in Calm   2.0 mph 87 % 0.00 in
07:19 65.5 °F 61.5 °F 30.03 in Calm   2.0 mph 87 % 0.00 in
07:24 65.5 °F 61.9 °F 30.03 in Calm   2.0 mph 88 % 0.00 in
07:30 65.5 °F 61.9 °F 30.03 in Calm   2.0 mph 88 % 0.00 in
07:35 65.5 °F 61.9 °F 30.03 in Calm   1.0 mph 88 % 0.00 in
07:38 65.7 °F 62.1 °F 30.03 in Calm   1.0 mph 88 % 0.00 in
07:43 65.8 °F 61.9 °F 30.03 in Calm   1.0 mph 87 % 0.00 in
07:48 66.0 °F 62.1 °F 30.03 in Calm   2.0 mph 87 % 0.00 in
07:53 66.7 °F 62.4 °F 30.04 in NW 2.0 mph 2.0 mph 86 % 0.00 in
07:58 67.3 °F 62.6 °F 30.04 in NW 1.0 mph 3.0 mph 85 % 0.00 in
08:03 67.8 °F 62.4 °F 30.04 in NW 1.0 mph 4.0 mph 83 % 0.00 in
08:08 68.4 °F 63.0 °F 30.04 in Calm   4.0 mph 83 % 0.00 in
08:13 68.7 °F 63.0 °F 30.04 in Calm   4.0 mph 82 % 0.00 in
08:18 69.4 °F 63.0 °F 30.04 in WNW 1.0 mph 4.0 mph 80 % 0.00 in
08:23 69.8 °F 63.0 °F 30.04 in WNW 2.0 mph 7.0 mph 79 % 0.00 in
08:28 70.0 °F 62.8 °F 30.04 in NW 5.0 mph 8.0 mph 78 % 0.00 in
08:33 70.3 °F 63.1 °F 30.04 in NW 2.0 mph 8.0 mph 78 % 0.00 in
08:38 70.5 °F 63.0 °F 30.04 in West 1.0 mph 8.0 mph 77 % 0.00 in
08:43 70.9 °F 63.3 °F 30.04 in NNW 2.0 mph 8.0 mph 77 % 0.00 in
08:48 71.1 °F 63.1 °F 30.04 in NW 3.0 mph 8.0 mph 76 % 0.00 in
08:53 71.4 °F 63.1 °F 30.04 in NW 3.0 mph 8.0 mph 75 % 0.00 in
08:58 71.8 °F 63.5 °F 30.04 in NNW 4.0 mph 8.0 mph 75 % 0.00 in
09:03 71.8 °F 63.0 °F 30.04 in NW 3.0 mph 8.0 mph 74 % 0.00 in
09:08 72.0 °F 63.1 °F 30.04 in WNW 2.0 mph 8.0 mph 74 % 0.00 in
09:13 72.3 °F 63.5 °F 30.04 in NW 2.0 mph 8.0 mph 74 % 0.00 in
09:18 72.9 °F 63.3 °F 30.04 in NNE 1.0 mph 8.0 mph 72 % 0.00 in
09:23 73.0 °F 63.5 °F 30.04 in NE 5.0 mph 8.0 mph 72 % 0.00 in
09:29 73.6 °F 63.7 °F 30.04 in NNE 2.0 mph 8.0 mph 71 % 0.00 in
09:34 73.9 °F 64.4 °F 30.04 in WSW 3.0 mph 8.0 mph 72 % 0.00 in
09:39 74.7 °F 64.6 °F 30.04 in NNW 3.0 mph 6.0 mph 71 % 0.00 in
09:44 74.8 °F 64.0 °F 30.04 in Calm   6.0 mph 69 % 0.00 in
09:49 75.0 °F 64.2 °F 30.04 in NNW 5.0 mph 6.0 mph 69 % 0.00 in
09:54 75.4 °F 63.7 °F 30.04 in North 4.0 mph 6.0 mph 67 % 0.00 in
09:59 75.6 °F 63.9 °F 30.05 in WNW 2.0 mph 6.0 mph 67 % 0.00 in
10:04 75.7 °F 64.4 °F 30.04 in East 1.0 mph 7.0 mph 68 % 0.00 in
10:05 75.9 °F 64.6 °F 30.04 in NNW 1.0 mph 7.0 mph 68 % 0.00 in
10:10 76.5 °F 64.2 °F 30.04 in East 2.0 mph 8.0 mph 66 % 0.00 in
10:15 76.5 °F 63.9 °F 30.04 in WNW 4.0 mph 9.0 mph 65 % 0.00 in
10:20 76.6 °F 64.4 °F 30.04 in WNW 2.0 mph 9.0 mph 66 % 0.00 in
10:25 77.2 °F 64.0 °F 30.04 in NW 3.0 mph 9.0 mph 64 % 0.00 in
10:30 77.2 °F 63.7 °F 30.04 in NNW 2.0 mph 9.0 mph 63 % 0.00 in
10:35 77.4 °F 63.3 °F 30.04 in NW 3.0 mph 9.0 mph 62 % 0.00 in
10:40 77.7 °F 63.7 °F 30.04 in NNW 4.0 mph 9.0 mph 62 % 0.00 in
10:45 78.1 °F 64.0 °F 30.04 in ENE 1.0 mph 8.0 mph 62 % 0.00 in
10:50 78.3 °F 63.7 °F 30.04 in East 5.0 mph 6.0 mph 61 % 0.00 in
10:55 78.6 °F 64.0 °F 30.04 in NNW 1.0 mph 9.0 mph 61 % 0.00 in
11:00 79.0 °F 63.9 °F 30.04 in NNW 1.0 mph 9.0 mph 60 % 0.00 in
11:05 79.3 °F 63.7 °F 30.04 in Calm   9.0 mph 59 % 0.00 in
11:10 79.9 °F 64.2 °F 30.03 in NW 2.0 mph 8.0 mph 59 % 0.00 in
11:15 80.1 °F 63.5 °F 30.03 in North 2.0 mph 6.0 mph 57 % 0.00 in
11:20 80.1 °F 63.0 °F 30.03 in NW 3.0 mph 11.0 mph 56 % 0.00 in
11:25 80.1 °F 63.0 °F 30.03 in NW 3.0 mph 11.0 mph 56 % 0.00 in
11:30 80.1 °F 63.0 °F 30.03 in NNW 7.0 mph 11.0 mph 56 % 0.00 in
11:35 80.1 °F 63.9 °F 30.03 in North 2.0 mph 10.0 mph 58 % 0.00 in
11:40 80.8 °F 64.0 °F 30.02 in West 2.0 mph 10.0 mph 57 % 0.00 in
11:41 81.0 °F 64.2 °F 30.03 in NW 3.0 mph 10.0 mph 57 % 0.00 in
11:46 80.8 °F 64.0 °F 30.02 in NNW 1.0 mph 11.0 mph 57 % 0.00 in
11:51 81.1 °F 64.0 °F 30.02 in North 2.0 mph 11.0 mph 56 % 0.00 in
11:56 81.3 °F 63.1 °F 30.02 in WNW 3.0 mph 11.0 mph 54 % 0.00 in
12:02 81.5 °F 63.9 °F 30.01 in NNE 1.0 mph 8.0 mph 55 % 0.00 in
12:07 81.9 °F 63.5 °F 30.01 in NW 6.0 mph 8.0 mph 54 % 0.00 in
12:12 81.3 °F 62.1 °F 30.01 in NW 5.0 mph 11.0 mph 52 % 0.00 in
12:17 81.3 °F 63.7 °F 30.01 in NNE 7.0 mph 13.0 mph 55 % 0.00 in
12:22 81.7 °F 63.9 °F 30.01 in WNW 5.0 mph 13.0 mph 55 % 0.00 in
12:27 81.3 °F 63.1 °F 30.01 in NW 3.0 mph 13.0 mph 54 % 0.00 in
12:32 81.1 °F 61.9 °F 30.01 in NW 4.0 mph 11.0 mph 52 % 0.00 in
12:37 81.3 °F 62.6 °F 30.01 in NW 7.0 mph 11.0 mph 53 % 0.00 in
12:42 81.7 °F 62.4 °F 30.00 in NW 3.0 mph 13.0 mph 52 % 0.00 in
12:47 81.3 °F 63.7 °F 30.00 in NNW 3.0 mph 13.0 mph 55 % 0.00 in
12:52 81.9 °F 62.4 °F 30.00 in North 4.0 mph 13.0 mph 52 % 0.00 in
12:57 81.1 °F 62.4 °F 30.00 in NW 10.0 mph 12.0 mph 53 % 0.00 in
13:02 81.7 °F 62.4 °F 30.00 in WNW 5.0 mph 11.0 mph 52 % 0.00 in
13:07 81.9 °F 62.4 °F 30.00 in WNW 7.0 mph 11.0 mph 52 % 0.00 in
13:12 81.5 °F 62.2 °F 30.00 in NNW 5.0 mph 11.0 mph 52 % 0.00 in
13:17 81.5 °F 62.8 °F 29.99 in NNW 4.0 mph 10.0 mph 53 % 0.00 in
13:22 81.0 °F 61.7 °F 29.99 in North 7.0 mph 11.0 mph 52 % 0.00 in
13:27 81.3 °F 62.6 °F 29.99 in NW 5.0 mph 11.0 mph 53 % 0.00 in
13:32 81.7 °F 61.9 °F 29.99 in NNW 4.0 mph 11.0 mph 51 % 0.00 in
13:37 81.3 °F 62.1 °F 29.99 in NNW 4.0 mph 11.0 mph 52 % 0.00 in
13:42 81.0 °F 61.7 °F 29.99 in NW 5.0 mph 11.0 mph 52 % 0.00 in
13:47 80.6 °F 61.9 °F 29.98 in NNW 3.0 mph 11.0 mph 53 % 0.00 in
13:52 81.3 °F 62.1 °F 29.98 in WNW 4.0 mph 11.0 mph 52 % 0.00 in
13:57 82.0 °F 62.1 °F 29.98 in North 7.0 mph 11.0 mph 51 % 0.00 in
14:02 81.5 °F 61.7 °F 29.98 in NW 2.0 mph 11.0 mph 51 % 0.00 in
14:05 81.5 °F 61.7 °F 29.98 in WNW 4.0 mph 11.0 mph 51 % 0.00 in
14:10 81.9 °F 61.9 °F 29.97 in NNW 4.0 mph 11.0 mph 51 % 0.00 in
14:15 81.9 °F 62.4 °F 29.97 in WNW 8.0 mph 12.0 mph 52 % 0.00 in
14:20 81.0 °F 61.2 °F 29.97 in NW 5.0 mph 13.0 mph 51 % 0.00 in
14:25 80.8 °F 61.5 °F 29.97 in NW 6.0 mph 13.0 mph 52 % 0.00 in
14:30 81.3 °F 62.6 °F 29.96 in WNW 4.0 mph 13.0 mph 53 % 0.00 in
14:35 82.2 °F 60.6 °F 29.96 in NW 8.0 mph 11.0 mph 48 % 0.00 in
14:40 81.9 °F 61.3 °F 29.96 in NNW 4.0 mph 11.0 mph 50 % 0.00 in
14:45 81.5 °F 62.2 °F 29.96 in NW 4.0 mph 11.0 mph 52 % 0.00 in
14:50 81.1 °F 61.3 °F 29.96 in West 4.0 mph 11.0 mph 51 % 0.00 in
14:55 80.8 °F 61.5 °F 29.96 in NE 6.0 mph 11.0 mph 52 % 0.00 in
15:00 81.1 °F 60.8 °F 29.95 in NW 4.0 mph 11.0 mph 50 % 0.00 in
15:05 81.3 °F 61.0 °F 29.95 in NNW 6.0 mph 10.0 mph 50 % 0.00 in
15:10 80.8 °F 61.0 °F 29.95 in NNW 4.0 mph 10.0 mph 51 % 0.00 in
15:15 80.8 °F 62.6 °F 29.95 in WNW 3.0 mph 10.0 mph 54 % 0.00 in
15:20 81.7 °F 61.9 °F 29.94 in WNW 6.0 mph 10.0 mph 51 % 0.00 in
15:25 81.7 °F 61.2 °F 29.94 in WNW 5.0 mph 11.0 mph 50 % 0.00 in
15:30 82.0 °F 59.2 °F 29.94 in North 5.0 mph 12.0 mph 46 % 0.00 in
15:35 82.6 °F 60.3 °F 29.94 in NW 7.0 mph 12.0 mph 47 % 0.00 in
15:40 82.6 °F 59.7 °F 29.94 in NW 6.0 mph 12.0 mph 46 % 0.00 in
15:45 82.9 °F 60.1 °F 29.94 in ENE 6.0 mph 12.0 mph 46 % 0.00 in
15:50 83.1 °F 60.3 °F 29.93 in WSW 6.0 mph 12.0 mph 46 % 0.00 in
15:55 82.9 °F 60.1 °F 29.93 in NW 6.0 mph 11.0 mph 46 % 0.00 in
16:00 82.9 °F 60.1 °F 29.93 in NW 7.0 mph 11.0 mph 46 % 0.00 in
16:05 82.8 °F 58.6 °F 29.93 in NNW 6.0 mph 11.0 mph 44 % 0.00 in
16:10 82.6 °F 58.5 °F 29.92 in NW 3.0 mph 13.0 mph 44 % 0.00 in
16:15 82.8 °F 59.2 °F 29.92 in NW 5.0 mph 13.0 mph 45 % 0.00 in
16:20 82.9 °F 58.1 °F 29.92 in NNW 4.0 mph 13.0 mph 43 % 0.00 in
16:25 83.1 °F 57.6 °F 29.92 in NW 2.0 mph 11.0 mph 42 % 0.00 in
16:30 83.1 °F 58.3 °F 29.92 in WNW 4.0 mph 10.0 mph 43 % 0.00 in
16:35 82.8 °F 57.9 °F 29.92 in NW 3.0 mph 13.0 mph 43 % 0.00 in
16:40 82.8 °F 57.9 °F 29.92 in NW 5.0 mph 13.0 mph 43 % 0.00 in
16:45 82.6 °F 58.5 °F 29.92 in West 3.0 mph 13.0 mph 44 % 0.00 in
16:50 82.6 °F 58.5 °F 29.92 in WNW 5.0 mph 13.0 mph 44 % 0.00 in
16:51 82.6 °F 58.5 °F 29.91 in WNW 6.0 mph 13.0 mph 44 % 0.00 in
16:56 82.8 °F 57.9 °F 29.91 in West 2.0 mph 13.0 mph 43 % 0.00 in
17:01 82.8 °F 57.9 °F 29.91 in West 3.0 mph 13.0 mph 43 % 0.00 in
17:06 82.8 °F 57.9 °F 29.91 in WNW 3.0 mph 12.0 mph 43 % 0.00 in
17:11 82.8 °F 57.4 °F 29.91 in NNW 3.0 mph 12.0 mph 42 % 0.00 in
17:16 82.8 °F 57.9 °F 29.91 in North 2.0 mph 12.0 mph 43 % 0.00 in
17:17 82.8 °F 57.9 °F 29.91 in NW 4.0 mph 12.0 mph 43 % 0.00 in
17:22 82.6 °F 57.7 °F 29.92 in West 3.0 mph 9.0 mph 43 % 0.00 in
17:27 82.6 °F 57.7 °F 29.92 in North 6.0 mph 9.0 mph 43 % 0.00 in
17:32 82.2 °F 58.1 °F 29.92 in SSW 5.0 mph 12.0 mph 44 % 0.00 in
17:37 82.0 °F 57.4 °F 29.92 in NW 4.0 mph 12.0 mph 43 % 0.00 in
17:42 82.0 °F 58.6 °F 29.92 in NNW 5.0 mph 12.0 mph 45 % 0.00 in
17:47 82.0 °F 57.9 °F 29.92 in NW 3.0 mph 11.0 mph 44 % 0.00 in
17:52 81.9 °F 57.7 °F 29.92 in NW 5.0 mph 11.0 mph 44 % 0.00 in
17:57 81.9 °F 59.0 °F 29.91 in North 4.0 mph 11.0 mph 46 % 0.00 in
18:02 81.7 °F 58.3 °F 29.91 in NNW 4.0 mph 11.0 mph 45 % 0.00 in
18:07 81.5 °F 58.6 °F 29.92 in WNW 3.0 mph 8.0 mph 46 % 0.00 in
18:12 81.7 °F 59.5 °F 29.91 in North 3.0 mph 8.0 mph 47 % 0.00 in
18:17 81.5 °F 59.4 °F 29.91 in NW 2.0 mph 8.0 mph 47 % 0.00 in
18:22 81.5 °F 59.4 °F 29.91 in NW 2.0 mph 7.0 mph 47 % 0.00 in
18:27 81.3 °F 59.2 °F 29.91 in NNW 6.0 mph 9.0 mph 47 % 0.00 in
18:32 81.1 °F 59.5 °F 29.92 in NW 2.0 mph 9.0 mph 48 % 0.00 in
18:37 81.1 °F 59.0 °F 29.92 in WNW 4.0 mph 9.0 mph 47 % 0.00 in
18:42 81.0 °F 59.4 °F 29.92 in NW 2.0 mph 9.0 mph 48 % 0.00 in
18:47 80.8 °F 59.9 °F 29.92 in NW 2.0 mph 8.0 mph 49 % 0.00 in
18:52 80.8 °F 59.2 °F 29.92 in NNW 4.0 mph 8.0 mph 48 % 0.00 in
18:57 80.4 °F 59.5 °F 29.92 in NNW 3.0 mph 6.0 mph 49 % 0.00 in
19:02 80.2 °F 59.4 °F 29.92 in WNW 2.0 mph 6.0 mph 49 % 0.00 in
19:07 80.1 °F 59.2 °F 29.92 in NW 2.0 mph 6.0 mph 49 % 0.00 in
19:12 79.9 °F 59.5 °F 29.92 in Calm   5.0 mph 50 % 0.00 in
19:17 79.5 °F 59.7 °F 29.92 in WNW 1.0 mph 5.0 mph 51 % 0.00 in
19:22 79.2 °F 59.5 °F 29.92 in North 1.0 mph 5.0 mph 51 % 0.00 in
19:27 78.6 °F 59.5 °F 29.92 in NNW 1.0 mph 3.0 mph 52 % 0.00 in
19:32 78.3 °F 59.7 °F 29.92 in Calm   3.0 mph 53 % 0.00 in
19:37 77.5 °F 60.1 °F 29.92 in Calm   2.0 mph 55 % 0.00 in
19:42 76.8 °F 59.9 °F 29.92 in Calm   2.0 mph 56 % 0.00 in
19:47 76.3 °F 59.9 °F 29.92 in Calm   1.0 mph 57 % 0.00 in
19:52 75.7 °F 59.9 °F 29.92 in Calm   1.0 mph 58 % 0.00 in
19:57 75.2 °F 59.9 °F 29.92 in Calm   1.0 mph 59 % 0.00 in
20:02 74.8 °F 60.1 °F 29.92 in Calm     60 % 0.00 in
20:07 74.5 °F 60.1 °F 29.92 in Calm   1.0 mph 61 % 0.00 in
20:12 73.9 °F 60.1 °F 29.92 in Calm   1.0 mph 62 % 0.00 in
20:17 73.8 °F 60.4 °F 29.92 in Calm   1.0 mph 63 % 0.00 in
20:22 73.2 °F 59.9 °F 29.92 in Calm   1.0 mph 63 % 0.00 in
20:27 72.9 °F 59.9 °F 29.92 in Calm   1.0 mph 64 % 0.00 in
20:32 72.5 °F 60.1 °F 29.93 in Calm   1.0 mph 65 % 0.00 in
20:37 72.1 °F 59.7 °F 29.92 in Calm     65 % 0.00 in
20:42 71.8 °F 60.3 °F 29.93 in Calm     67 % 0.00 in
20:47 71.4 °F 59.9 °F 29.92 in Calm     67 % 0.00 in
20:52 70.9 °F 59.7 °F 29.93 in Calm     68 % 0.00 in
20:58 70.5 °F 59.9 °F 29.93 in Calm     69 % 0.00 in
21:03 70.0 °F 59.7 °F 29.93 in Calm     70 % 0.00 in
21:08 69.6 °F 60.3 °F 29.93 in Calm     72 % 0.00 in
21:13 69.8 °F 60.4 °F 29.93 in Calm     72 % 0.00 in
21:18 69.4 °F 60.1 °F 29.93 in Calm     72 % 0.00 in
21:23 69.1 °F 59.7 °F 29.94 in Calm     72 % 0.00 in
21:28 68.5 °F 59.5 °F 29.93 in Calm     73 % 0.00 in
21:33 68.4 °F 59.7 °F 29.93 in Calm     74 % 0.00 in
21:38 68.2 °F 59.5 °F 29.94 in Calm     74 % 0.00 in
21:43 68.0 °F 59.7 °F 29.94 in Calm     75 % 0.00 in
21:48 67.8 °F 59.9 °F 29.94 in Calm     76 % 0.00 in
21:53 68.0 °F 60.1 °F 29.94 in Calm     76 % 0.00 in
21:58 68.2 °F 60.6 °F 29.94 in Calm     77 % 0.00 in
22:03 68.2 °F 60.6 °F 29.94 in Calm     77 % 0.00 in
22:08 67.8 °F 60.3 °F 29.94 in Calm     77 % 0.00 in
22:13 67.6 °F 61.0 °F 29.94 in Calm     79 % 0.00 in
22:18 67.3 °F 60.3 °F 29.94 in Calm     78 % 0.00 in
22:19 67.3 °F 60.3 °F 29.94 in Calm     78 % 0.00 in
22:21 66.9 °F 60.3 °F 29.94 in Calm     79 % 0.00 in
22:26 66.7 °F 60.8 °F 29.94 in Calm     81 % 0.00 in
22:31 66.7 °F 61.0 °F 29.94 in Calm     82 % 0.00 in
22:36 66.7 °F 61.0 °F 29.94 in Calm     82 % 0.00 in
22:41 66.6 °F 61.0 °F 29.94 in Calm     82 % 0.00 in
22:44 66.6 °F 61.2 °F 29.94 in Calm     83 % 0.00 in
22:49 66.6 °F 61.2 °F 29.94 in Calm     83 % 0.00 in
22:54 66.4 °F 61.0 °F 29.93 in Calm     83 % 0.00 in
22:59 66.4 °F 61.3 °F 29.94 in Calm     84 % 0.00 in
23:04 66.2 °F 61.5 °F 29.94 in NE 1.0 mph   85 % 0.00 in
23:05 66.4 °F 61.7 °F 29.94 in Calm   1.0 mph 85 % 0.00 in
23:10 66.4 °F 61.3 °F 29.94 in Calm   1.0 mph 84 % 0.00 in
23:15 66.0 °F 61.0 °F 29.94 in Calm   1.0 mph 84 % 0.00 in
23:21 65.8 °F 60.8 °F 29.94 in Calm     84 % 0.00 in
23:26 65.7 °F 61.0 °F 29.94 in Calm     85 % 0.00 in
23:31 65.5 °F 60.8 °F 29.94 in Calm     85 % 0.00 in
23:36 65.1 °F 60.1 °F 29.93 in Calm     84 % 0.00 in
23:41 64.9 °F 60.6 °F 29.93 in Calm     86 % 0.00 in
23:46 64.9 °F 60.6 °F 29.93 in Calm     86 % 0.00 in
23:51 64.9 °F 60.6 °F 29.93 in Calm     86 % 0.00 in
23:56 64.8 °F 60.4 °F 29.93 in Calm     86 % 0.00 in
Spring, Texas: Villages of Bridgestone
Compliments of Weather Underground - 3 mb

Script developed by  Jim McMurry - jmcmurry@mwt.net Adapted for the template by  Wim van der Kuil - Leuven-Template.eu

You find our weather info also at:

UK Metoffice

WeatherCloud

Weather Underground

Mid-South Weather Network

AWEKAS

Citizen Weather Observer Program (CWOP)

HAMweather, WeatherForYou, PWS Weather

Equipment we use:

Weather-station
Davis Vantage Vue

Weather-program
Meteohub

Weather-server
Debian 7.9 x86 (Guest)

Provider
DreamHost

Davis Vantage Vue

Meteohub

Debian 7.9 x86 (Guest)

DreamHost